Location: Celina Division
(33.3022°N, 96.7580°W)
Time: 00:37:57
(UTC+00:00)

N. Korean satellite - Pass Details

Date: 05 December 2022
Orbit: 407 x 442 km, 97.3° (Epoch: 05 February)

Event Time Altitude Azimuth Distance (km) Brightness Sun altitude
Rises 12:11:11 0° 359° (N) 2,500 10.0 -13.4°
Reaches altitude 10° 12:13:25 10° 347° (NNW) 1,612 8.9 -12.9°
Maximum altitude 12:16:27 29° 287° (WNW) 872 7.3 -12.3°
Drops below altitude 10° 12:19:25 10° 225° (SW) 1,576 8.9 -11.7°
Sets 12:21:34 0° 214° (SW) 2,432 10.0 -11.3°
